Location: Hains Lake
(37.8540°N, 99.8578°W)
Time: 03:57:03
(UTC+00:00)

Vanguard 2 Rocket - Pass Details

Date: 18 April 2021
Orbit: 553 x 3326 km, 32.9° (Epoch: 07 May)

Event Time Altitude Azimuth Distance (km) Brightness Sun altitude
Rises 18:20:10 0° 212° (SSW) 5,986 11.4 62.9°
Reaches altitude 10° 18:24:07 10° 204° (SSW) 5,309 11.3 63.0°
Maximum altitude 18:39:14 39° 142° (SE) 4,188 11.4 63.2°
Drops below altitude 10° 18:56:47 10° 83° (E) 6,170 11.2 62.9°
Sets 19:01:45 0° 77° (ENE) 7,018 11.3 62.8°
